[[{"header":{"parameterUnit":"m.s-1","parameterCategory":1,"la1":30.2992,"la2":30.254,"lo1":-89.0895,"lo2":-89.0443,"dy":0.0025,"dx":0.0025,"nx":19,"ny":19,"refTime":"2026-05-10T03:00:00:Z","depth":0,"parameterNumber":2,"parameterNumberName":"U-component_of_WINDS"},"data":[0,0,0,-2.0238,-2.0237,-2.0193,-2.0193,-2.0162,-2.0162,0,0,0,0,0,0,0,0,0,0,0,-2.0266,-2.0266,-2.0238,-2.0237,-2.0193,-2.0193,-2.0162,-2.0162,0,0,0,0,0,0,0,0,0,0,0,-2.0265,-2.0266,-2.0266,-2.0237,-2.0193,-2.0192,-2.0162,-2.0186,0,0,0,0,0,0,0,0,0,0,-2.0225,-2.0265,-2.0266,-2.0266,-2.0237,-2.0193,-2.0192,-2.0187,-2.0185,-2.0193,0,-2.0204,0,-2.0183,-2.0162,-2.0162,0,0,0,-2.0226,-2.0267,-2.0242,-2.0266,-2.0236,-2.0193,-2.021,-2.0186,-2.0183,-2.019,-2.0203,-2.0201,-2.0182,-2.0162,-2.0162,-2.0246,-2.0247,0,0,-2.0228,-2.0266,-2.0243,-2.0241,-2.0248,-2.0211,-2.0208,-2.0184,-2.02,-2.0203,-2.02,-2.0182,-2.0162,-2.0162,-2.0245,-2.0246,0,0,0,-2.0243,-2.0268,-2.0242,-2.0243,-2.0233,-2.021,-2.0207,-2.0201,-2.019,-2.0199,-2.0181,-2.0162,-2.0162,-2.0244,-2.0245,-2.0327,0,0,0,-2.0244,-2.0276,-2.0244,-2.0267,-2.0234,-2.0216,-2.0226,-2.0192,-2.0188,-2.0181,-2.0162,-2.0161,-2.0243,-2.0245,-2.0322,-2.0359,0,0,0,-2.0263,-2.0278,-2.0277,-2.0269,-2.0251,-2.0216,-2.0202,-2.019,-2.0177,-2.0162,-2.0161,-2.0242,-2.0244,-2.0318,-2.0352,-2.0393,0,0,0,-2.0295,-2.0349,-2.0279,-2.0333,-2.0252,-2.0267,-2.0202,-2.0211,-2.0208,-2.0162,-2.0243,-2.0245,-2.0317,-2.0348,-2.0389,-2.0434,-2.0456,0,0,-2.0384,-2.0361,-2.039,-2.0326,-2.0363,-2.027,-2.0319,-2.0281,-2.0245,-2.0248,-2.0249,-2.0324,-2.0352,-2.0392,-2.0567,-2.0585,0,0,0,-2.0431,-2.0453,-2.0454,-2.0453,-2.0425,-2.0405,-2.0355,-2.0341,-2.0342,-2.0254,-2.0348,-2.0364,-2.0386,-2.0405,-2.0421,-2.0438,-2.0256,-2.0255,-2.0255,-2.0611,-2.0563,-2.0608,-2.0556,-2.0556,-2.0505,-2.05,-2.0473,-2.0424,-2.0448,-2.0448,-2.056,-2.0584,-2.0595,-2.0614,-2.0468,-2.0468,-2.0468,-2.0468,-2.0738,-2.0761,-2.0696,-2.0717,-2.0667,-2.0684,-2.0638,-2.0603,-2.0612,-2.0555,-2.0572,-2.0514,-2.0617,-2.063,-2.0474,-2.0473,-2.0472,-2.0472,-2.0471,-2.085,-2.0853,-2.0836,-2.083,-2.0832,-2.0777,-2.079,-2.0743,-2.0699,-2.0716,-2.0713,-2.0711,-2.0705,-2.0718,-2.0718,-2.0719,-2.0719,-2.0719,-2.072,-2.0974,-2.0952,-2.0967,-2.0944,-2.0938,-2.0925,-2.0876,-2.0869,-2.085,-2.0815,-2.0815,-2.0765,-2.0635,-2.0604,-2.0725,-2.0724,-2.0724,-2.0723,-2.0723,-2.1121,-2.1081,-2.1105,-2.11,-2.107,-2.1075,-2.1016,-2.1007,-2.0995,-2.1003,-2.095,-2.0861,-2.0834,-2.0822,-2.0796,-2.0959,-2.0959,-2.0959,-2.0959,-2.1216,-2.1198,-2.1214,-2.1208,-2.1197,-2.1147,-2.1179,-2.1142,-2.1098,-2.1088,-2.1058,-2.1019,-2.1009,-2.0988,-2.0972,-2.0947,-2.1145,-2.1145,-2.1145,-2.1304,-2.1284,-2.1319,-2.1275,-2.1248,-2.1228,-2.1256,-2.1253,-2.1195,-2.1152,-2.108,-2.1072,-2.1009,-2.099,-2.0946,-2.0922,-2.0875,0,0]},{"header":{"parameterUnit":"m.s-1","parameterCategory":1,"la1":30.2992,"la2":30.254,"lo1":-89.0895,"lo2":-89.0443,"dy":0.0025,"dx":0.0025,"nx":19,"ny":19,"refTime":"2026-05-10T03:00:00:Z","depth":0,"parameterNumber":3,"parameterNumberName":"V-component_of_WINDS"},"data":[0,0,0,2.5265,2.5265,2.5284,2.5284,2.5304,2.5304,0,0,0,0,0,0,0,0,0,0,0,2.5257,2.5258,2.5265,2.5265,2.5284,2.5284,2.5304,2.5304,0,0,0,0,0,0,0,0,0,0,0,2.5257,2.5258,2.5258,2.5265,2.5284,2.5284,2.5304,2.5291,0,0,0,0,0,0,0,0,0,0,2.5273,2.5265,2.5257,2.5258,2.5265,2.5284,2.5284,2.529,2.5292,2.5294,0,2.5296,0,2.53,2.5305,2.5305,0,0,0,2.5266,2.5264,2.5271,2.5258,2.5265,2.5284,2.5276,2.5291,2.5293,2.5296,2.5296,2.5297,2.5301,2.5305,2.5305,2.5316,2.5316,0,0,2.5265,2.526,2.527,2.5272,2.5269,2.5275,2.5276,2.5292,2.5292,2.5296,2.5298,2.5301,2.5305,2.5305,2.5316,2.5316,0,0,0,2.5262,2.5259,2.5265,2.5271,2.5274,2.5276,2.5277,2.5291,2.5294,2.5298,2.5301,2.5305,2.5306,2.5316,2.5316,2.5312,0,0,0,2.5261,2.5257,2.5265,2.5261,2.5274,2.5283,2.5276,2.5293,2.5295,2.5301,2.5305,2.5306,2.5316,2.5316,2.5312,2.531,0,0,0,2.5257,2.5256,2.5258,2.5261,2.5269,2.5283,2.5287,2.5293,2.5297,2.5305,2.5306,2.5316,2.5316,2.5312,2.531,2.5312,0,0,0,2.525,2.5253,2.5258,2.5262,2.5269,2.528,2.5287,2.5295,2.5301,2.5305,2.5316,2.5316,2.5312,2.531,2.5312,2.5312,2.5312,0,0,2.525,2.5253,2.5256,2.5261,2.527,2.5278,2.5286,2.5297,2.5302,2.5311,2.5311,2.5312,2.531,2.5312,2.5311,2.5311,0,0,0,2.5254,2.5256,2.5259,2.5266,2.5275,2.5282,2.5293,2.5297,2.5305,2.5306,2.5313,2.5312,2.5313,2.5314,2.5313,2.5315,2.5316,2.5316,2.5316,2.5245,2.5253,2.5258,2.5269,2.5275,2.5286,2.5292,2.5299,2.5304,2.5306,2.5309,2.5308,2.5308,2.5308,2.5309,2.5309,2.5309,2.5309,2.5309,2.5246,2.525,2.5258,2.5267,2.5275,2.5282,2.5293,2.5296,2.5304,2.5306,2.5307,2.5309,2.5307,2.5309,2.5309,2.5309,2.5309,2.5309,2.5309,2.5241,2.5245,2.5251,2.5262,2.5269,2.5279,2.5287,2.5293,2.53,2.5301,2.5305,2.5305,2.5306,2.5303,2.5303,2.5303,2.5303,2.5303,2.5303,2.5235,2.5241,2.5247,2.5258,2.5263,2.5271,2.5283,2.5289,2.5297,2.5301,2.5301,2.5306,2.5306,2.5306,2.5303,2.5303,2.5303,2.5303,2.5303,2.5233,2.5235,2.5244,2.5249,2.5263,2.527,2.5279,2.529,2.5295,2.5299,2.5304,2.5302,2.5305,2.5305,2.5305,2.5302,2.5302,2.5302,2.5302,2.523,2.5232,2.5243,2.5252,2.5261,2.5271,2.528,2.5289,2.5299,2.5303,2.5304,2.5305,2.5305,2.5307,2.5308,2.5308,2.5306,2.5306,2.5306,2.5229,2.5233,2.524,2.5251,2.5262,2.5271,2.5281,2.529,2.5301,2.5306,2.5306,2.5306,2.5307,2.5307,2.5311,2.5311,2.5312,0,0]}]]